Regional Weather Roundup
Issued by NWS

Home | Current Version | Previous Version | Text Only | Print | Product List | Glossary On
Versions: 1 2 3 4 5 6 7 8 9 10 11 12 13 14 15 16 17 18 19 20 21 22 23 24 25 26 27 28 29 30 31 32 33 34 35 36 37 38 39 40 41 42 43 44 45 46 47 48 49 50
000
ASUS42 KTBW 212210
RWRFL
FLORIDA REGIONAL WEATHER ROUNDUP
NATIONAL WEATHER SERVICE TAMPA BAY RUSKIN FL
600 PM EDT SUN SEP 21 2014

NOTE: "FAIR" INDICATES FEW OR NO CLOUDS BELOW 12,000 FEET WITH NO
SIGNIFICANT WEATHER AND/OR OBSTRUCTIONS TO VISIBILITY.


FLZ001>010-012>015-112-114-115-212300-
PANHANDLE FLORIDA

CITY           SKY/WX    TMP DP  RH WIND       PRES   REMARKS
PENSACOLA      SUNNY     82  65  56 S8        29.97R
PENSACOLA NAS  MOSUNNY   84  65  52 S9        29.97R
MILTON NAS     MOSUNNY   87  63  44 E5        29.97S
CRESTVIEW      SUNNY     89  63  41 NE3       29.98S
DUKE FIELD     FAIR      89  73  59 VRB3      29.97R HX  96
VALPARAISO     MOSUNNY   85  67  54 SW7       29.97R
MARY ESTHER    SUNNY     84  63  47 S7        29.96R
TRI COUNTY     FAIR      86  63  45 MISG      29.97S
PANAMA CITY    FAIR      88  62  41 SE3       29.95S
TYNDALL AFB    SUNNY     83  73  72 SW9       29.96S
APALACHICOLA   SUNNY     85  67  54 SE8       29.96S

STATION/POSITION SKY/WX   TEMP    WIND        PRES    WAVE   SWELL
                          AIR SEA DIR/SP/G            HT/PER HT/PER
                          (F)     (DEG/KT/KT) (MB)    (FT/S) (FT/S)
30.1N   87.6W              82 85  140/ 10/ 12 1015.0S   2/ 5   2/ 5
29.2N   88.2W              82 85   70/ 14/ 17 1014.9    4/ 6
28.8N   86.0W              81 84  100/ 12/ 14 1014.0F   3/ 5
PANAMA CITY BEAC           83 86  210/  6/  9 1014.4S
CAPE SAN BLAS    NOT AVBL
TOWER C                    79      90/  6/  8 1014.6S
28.5N   84.5W              81 85  110/  6/  8 1014.6R   2/ 4   2/ 4

$$
FLZ011-016>038-118-127-128-134-139-239-212300-
NORTH FLORIDA

CITY           SKY/WX    TMP DP  RH WIND       PRES   REMARKS
MARIANNA       SUNNY     86  63  45 CALM      29.96S
TALLAHASSEE    MOSUNNY   87  59  38 N5        29.96S
PERRY          SUNNY     82  64  54 SW10      29.96S
CROSS CITY       N/A     87  65  47 CALM      29.96R
LAKE CITY      FAIR      84  59  42 S3        29.96S
GAINESVILLE    SUNNY     87  59  38 CALM      29.96S
MAYPORT NAS    MOSUNNY   82  63  52 SE8       29.97R
JACKSONVILLE   MOSUNNY   86  57  37 CALM      29.95S
JAX NAS        MOSUNNY   89  57  33 S8        29.97R
JAX CRAIG      SUNNY     84  61  45 SE6       29.96R
JAX CECIL      MOSUNNY   84  61  45 SE8       29.96R
ST AUGUSTINE   SUNNY     82  64  54 E6        29.99R

STATION/POSITION SKY/WX   TEMP    WIND        PRES    WAVE   SWELL
                          AIR SEA DIR/SP/G            HT/PER HT/PER
                          (F)     (DEG/KT/KT) (MB)    (FT/S) (FT/S)
SHELL POINT                83     180/  6/  8   N/A
KEATON BEACH               81     250/  6/  7 1015.0R
CEDAR KEY                  82     310/  6/  8 1015.1R
FERNANDINA                 83 80  170/  5/  8 1014.0R
30.7N   81.3W                 84                N/A     3/ 5
MAYPORT                    82 82  130/  6/  7   N/A
31.4N   80.9W              81 83  190/ 12/ 14 1013.6F   2/ 6   2/ 6
ST AUGUSTINE               80      90/  2/  3 1015.9R

$$
FLZ040-043>046-052-053-057-058-063-144-212300-
INTERIOR CENTRAL FLORIDA

CITY           SKY/WX    TMP DP  RH WIND       PRES   REMARKS
OCALA          MOSUNNY   86  66  51 CALM      29.96S
THE VILLAGES     N/A     88  68  51 CALM      29.87R
LEESBURG       SUNNY     88  67  49 CALM      29.97R
SANFORD        CLOUDY    81  72  74 E10       29.97R
ORLANDO EXEC   PTSUNNY   85  71  63 E8        29.96R
ORLANDO INTL   HVY RAIN  80  75  84 SE13      29.97R
KISSIMMEE      MOSUNNY   84  73  70 SE9       29.97R
WINTER HAVEN   SUNNY     87  71  58 NE5       29.97S
LAKELAND       PTSUNNY   86  66  51 CALM      29.96S
BARTOW         FAIR      84  70  61 SE3       29.97S
OKEECHOBEE       N/A     77  73  88 MISG      29.98F

$$
FLZ041-047-054-059-064-141-147-212300-
EAST CENTRAL FLORIDA

CITY           SKY/WX    TMP DP  RH WIND       PRES   REMARKS
DAYTONA BEACH  MOSUNNY   82  68  62 E9        29.98R
DELAND         CLEAR     82  68  61 NE10      29.99R
NEW SMYRNA BEA SUNNY     82  72  69 NE12      29.98S
JFK SPACE CTR  CLOUDY    84  71  64 E5        29.98R
TITUSVILLE     PTSUNNY   81  72  74 NE6       29.98R
CAPE CANAVERAL CLOUDY    81  71  71 NE3       29.97S
PATRICK AFB    CLOUDY    81  73  75 NE6       29.97S
MELBOURNE      CLOUDY    81  74  79 S7        29.97S
VERO BEACH     CLOUDY    74  71  91 S3        29.98S
FT PIERCE      LGT RAIN  74  72  93 SE3       29.98S
STUART         LGT RAIN  75  72  88 N6        29.99S

STATION/POSITION SKY/WX   TEMP    WIND        PRES    WAVE   SWELL
                          AIR SEA DIR/SP/G            HT/PER HT/PER
                          (F)     (DEG/KT/KT) (MB)    (FT/S) (FT/S)
28.5N   80.2W              81 84   10/  6/  8 1015.1S
28.9N   78.5W              82 85  310/  6/  8 1014.9S   5/10   5/10
TRIDENT PIER               81 84   20/  5/  6 1014.4F
28.4N   80.5W                 83                N/A     2/11
27.6N   80.2W                 83                N/A     2/10   2/11

$$
FLZ050-056-061-142-242-148-248-149-249-151-251-155-255-
160-260-212300-
WEST CENTRAL FLORIDA

CITY           SKY/WX    TMP DP  RH WIND       PRES   REMARKS
CRYSTAL RIVER  FAIR      82  70  65 W5        29.96R
INVERNESS      FAIR      86  54  32 NE5       29.96S
BROOKSVILLE    SUNNY     87  69  54 E3        29.96R
ZEPHYRHILLS    FAIR      88  66  48 E3        29.97R
CLEARWATER     PTSUNNY   85  74  69 N6        29.95S
TAMPA INTL     MOSUNNY   84  73  69 SW9       29.96R
TAMPA EXEC     MOSUNNY   82  75  78 CALM      29.95F
PLANT CITY     SUNNY     90  68  48 MISG        N/A
MACDILL AFB    MOSUNNY   85  76  73 SW3       29.96R
ST PETERSBURG  MOSUNNY   84  70  62 W8        29.94R
SARASOTA       SUNNY     84  73  69 W8        29.95S
VENICE           N/A    N/A N/A N/A MISG        N/A

STATION/POSITION SKY/WX   TEMP    WIND        PRES    WAVE   SWELL
                          AIR SEA DIR/SP/G            HT/PER HT/PER
                          (F)     (DEG/KT/KT) (MB)    (FT/S) (FT/S)
CEDAR KEY                  82     310/  6/  8 1015.1R
28.5N   84.5W              81 85  110/  6/  8 1014.6R   2/ 4   2/ 4
27.3N   84.3W                 86                N/A     2/ 4
CLEARWATER BEACH NOT AVBL
MIDDLE TAMPA BAY           82     270/  7/  9 1014.5S
VENICE                     84 86  260/  5/  6 1014.2R

$$
FLZ066-069-070-075>078-162-262-165-265-212300-
SOUTHWEST FLORIDA AND KEYS

CITY           SKY/WX    TMP DP  RH WIND       PRES   REMARKS
PUNTA GORDA    MOSUNNY   86  74  67 W10       29.98R
FT MYERS       MOSUNNY   81  72  74 W7        29.96R
SOUTHWEST INTL MOSUNNY   83  32  16 W7        29.96S
NAPLES         SUNNY     85  73  67 W7        29.96S
MARCO ISLAND   CLEAR     86  72  62 W6        29.96S
MARATHON       MOSUNNY   86  76  71 SE5       29.97R HX  96
KEY WEST NAS   PTSUNNY   86  74  67 E7        29.97R
KEY WEST INTL  MOSUNNY   86  75  69 SE6       29.97R HX  95

STATION/POSITION SKY/WX   TEMP    WIND        PRES    WAVE   SWELL
                          AIR SEA DIR/SP/G            HT/PER HT/PER
                          (F)     (DEG/KT/KT) (MB)    (FT/S) (FT/S)
VENICE                     84 86  260/  5/  6 1014.2R
NAPLES                     84 90  260/  3/  5 1015.1S
DRY TORTUGAS               83     150/  6/  7 1014.6R
NW FL BAY                  84     190/  4/  5 1014.7F
SAND KEY                   84     130/  6/  8 1014.7R
SOMBRERO KEY               87     140/  6/  7 1015.7R
LONG KEY                   85 86  170/  5/  6 1015.7R
MOLASSES REEF              84 86  140/  5/  6 1015.1R

$$
FLZ067-068-071>074-168-172>174-212300-
SOUTHEAST FLORIDA

CITY           SKY/WX    TMP DP  RH WIND       PRES   REMARKS
W PALM BEACH   TSTM      75  74  96 NE6       29.99R
FT LAUDER-EXEC PTSUNNY   84  75  74 SE8       29.96S
FT LAUDERDALE  PTSUNNY   84  73  69 SE13      29.96S
POMPANO BEACH  MOSUNNY   85  72  65 SE12      29.97S
PEMBROKE PINES MOSUNNY   86  74  67 SE12      29.98R
OPA LOCKA      MOSUNNY   86  71  60 SE9       29.97S
MIAMI          LGT RAIN  84  74  71 SE8       29.98R
WEST KENDALL   LGT RAIN  81  75  82 SE6       29.98S
HOMESTEAD      LGT RAIN  77  73  88 NE7       29.98R FOG

STATION/POSITION SKY/WX   TEMP    WIND        PRES    WAVE   SWELL
                          AIR SEA DIR/SP/G            HT/PER HT/PER
                          (F)     (DEG/KT/KT) (MB)    (FT/S) (FT/S)
PORT EVERGLADES            84     150/  8/ 11 1014.7
VIRGINIA KEY               83 85  150/  5/  7   N/A
LAKE WORTH                 74 86   10/ 11/ 15 1015.7R
FOWEY ROCKS                83 85  140/  5/  6 1015.5R
SETTLEMENT POINT           82     290/  2/  3 1016.1R

$$




USA.gov is the U.S. government's official web portal to all federal, state and local government web resources and services.